Tracking 29892 objects as of 21-Nov-2024
HD Live streaming from Space Station
objects crossing your sky now

ARIANE 1 DEB

Track ARIANE 1 DEB now!
10-day predictions


NORAD ID: 17203
Int'l Code: 1986-019BF
Perigee: 782.6 km
Apogee: 970.7 km
Inclination: 98.7 °
Period: 102.3 minutes
Semi major axis: 7247 km
RCS: 0.0933 m2 (small)
Launch date: February 22, 1986
Source: France (FR)
Launch site: FRENCH GUIANA (FRGUI)

Note: This is SATELLITE DEBRIS
Your satellite tracking list
Your tracking list is empty




NASA's NSSDC Master Catalog

Two Line Element Set (TLE):
1 17203U 86019BF  24325.60962248  .00000694  00000-0  40847-3 0  9995
2 17203  98.6752   2.5344 0129774 329.4935 182.4306 14.07048963945278
Source of the keplerian elements: AFSPC